September 30, 2022

Time Code Weather Temp. Visibility Ceiling Wind METAR/SPECI
18:00
V
19 °C 10 km+ - 320° 320° 15 kt METAR LFMU 301600Z AUTO 32015KT CAVOK 19/05 Q1013 TEMPO 28020G30KT
17:30
V
20 °C 10 km+ - 310° 310° 17 kt METAR LFMU 301530Z AUTO 31017KT CAVOK 20/04 Q1012 TEMPO 28020G30KT
17:00
V
19 °C 10 km+ - 320° 320° 15 kt METAR LFMU 301500Z AUTO 32015KT CAVOK 19/06 Q1012 BECMG 28020G30KT
16:30
V
20 °C 10 km+ - 340° 340° 16 kt METAR LFMU 301430Z AUTO 34016KT CAVOK 20/06 Q1012 BECMG 28020G30KT
16:00
V
19 °C 10 km+ - 340° 340° 15 kt METAR LFMU 301400Z AUTO 34015KT CAVOK 19/05 Q1012 BECMG 30017G30KT
15:30
V
19 °C 10 km+ - 330° 330° 16 kt METAR LFMU 301330Z AUTO 33016KT 310V010 CAVOK 19/05 Q1012 BECMG 30017G30KT
15:00
V
19 °C 10 km+ - 330° 330° 13 kt METAR LFMU 301300Z AUTO 33013KT 300V360 CAVOK 19/07 Q1011 BECMG 30017G30KT
14:30
V
19 °C 10 km+ - 340° 340° 14 kt METAR LFMU 301230Z AUTO 34014KT CAVOK 19/05 Q1011 BECMG 30017G30KT
14:00
V
19 °C 10 km+ - 330° 330° 11 kt METAR LFMU 301200Z AUTO 33011KT 300V010 CAVOK 19/06 Q1011 BECMG 30017G30KT
13:30
V
19 °C 10 km+ - 330° 330° 16 kt METAR LFMU 301130Z AUTO 33016KT CAVOK 19/05 Q1011 BECMG 30017G30KT
13:00
V
20 °C 10 km+ - 340° 340° 17 kt METAR LFMU 301100Z AUTO 34017KT 310V010 CAVOK 20/07 Q1011 BECMG 30017G30KT
12:30
V
19 °C 10 km+ - 350° 350° 17 kt METAR LFMU 301030Z AUTO 35017KT CAVOK 19/06 Q1011 BECMG 30017G30KT
12:00
V
18 °C 10 km+ - 320° 320° 13 kt METAR LFMU 301000Z AUTO 32013KT 290V360 CAVOK 18/07 Q1011 BECMG 30017G30KT
11:30
V
18 °C 10 km+ - 330° 330° 11 kt METAR LFMU 300930Z AUTO 33011KT 290V010 9999 FEW048 SCT120 18/07 Q1011 BECMG 30017G30KT
11:00
V
17 °C 10 km+ - 340° 340° 9 kt METAR LFMU 300900Z AUTO 34009KT CAVOK 17/08 Q1011 BECMG 30017G30KT
10:30
V
16 °C 10 km+ - 310° 310° 8 kt METAR LFMU 300830Z AUTO 31008KT CAVOK 16/09 Q1010 BECMG 30017G30KT
10:00
V
15 °C 10 km+ - 280° 280° 6 kt METAR LFMU 300800Z AUTO 28006KT 250V310 CAVOK 15/09 Q1010 BECMG 33015G25KT
09:30
V
15 °C 10 km+ - 280° 280° 8 kt METAR LFMU 300730Z AUTO 28008KT CAVOK 15/09 Q1009 BECMG 33015G25KT
09:00
V
13 °C 10 km+ - 290° 290° 11 kt METAR LFMU 300700Z AUTO 29011KT CAVOK 13/09 Q1009 BECMG 33015G25KT
08:30
V
13 °C 10 km+ - 310° 310° 6 kt METAR LFMU 300630Z AUTO 31006KT CAVOK 13/09 Q1009 BECMG 33015G25KT
08:00
V
12 °C 10 km+ - 290° 290° 5 kt METAR LFMU 300600Z AUTO 29005KT CAVOK 12/08 Q1008 NOSIG
07:30
V
12 °C 10 km+ - 290° 290° 7 kt METAR LFMU 300530Z AUTO 29007KT CAVOK 12/09 Q1008 NOSIG
07:00
V
13 °C 10 km+ - 310° 310° 3 kt METAR LFMU 300500Z AUTO 31003KT CAVOK 13/09 Q1007 NOSIG
06:30
V
14 °C 10 km+ - 300° 300° 5 kt METAR LFMU 300430Z AUTO 30005KT 9999 //////TCU 14/09 Q1007 BECMG NSC
06:00
V
14 °C 10 km+ - 280° 280° 6 kt METAR LFMU 300400Z AUTO 28006KT 9999 ///TCU 14/09 Q1007 BECMG NSC
05:30
V
14 °C 10 km+ - 270° 270° 8 kt METAR LFMU 300330Z AUTO 27008KT 9999 //////TCU 14/09 Q1006 BECMG NSC
05:00
V
13 °C 10 km+ - 290° 290° 7 kt METAR LFMU 300300Z AUTO 29007KT CAVOK 13/09 Q1006 NOSIG
04:30
V
13 °C 10 km+ - 270° 270° 8 kt METAR LFMU 300230Z AUTO 27008KT CAVOK 13/09 Q1006
04:00
V
13 °C 10 km+ - 280° 280° 7 kt METAR LFMU 300200Z AUTO 28007KT CAVOK 13/09 Q1006
03:30
V
13 °C 10 km+ - 280° 280° 9 kt METAR LFMU 300130Z AUTO 28009KT CAVOK 13/10 Q1006
03:00
V
13 °C 10 km+ - 270° 270° 8 kt METAR LFMU 300100Z AUTO 27008KT CAVOK 13/10 Q1006
02:30
V
13 °C 10 km+ - 270° 270° 7 kt METAR LFMU 300030Z AUTO 27007KT 9999 -RA NSC 13/10 Q1006
02:00
V
13 °C 10 km+ - 280° 280° 7 kt METAR LFMU 300000Z AUTO 28007KT CAVOK 13/10 Q1006
01:30
V
13 °C 10 km+ - 280° 280° 6 kt METAR LFMU 292330Z AUTO 28006KT CAVOK 13/10 Q1005
01:00
V
14 °C 10 km+ - 280° 280° 5 kt METAR LFMU 292300Z AUTO 28005KT 9999 //////TCU 14/11 Q1005
00:30
V
14 °C 10 km+ - 290° 290° 5 kt METAR LFMU 292230Z AUTO 29005KT 9999 //////TCU 14/11 Q1005
00:00
V
14 °C 10 km+ - 280° 280° 6 kt METAR LFMU 292200Z AUTO 28006KT 9999 //////TCU 14/11 Q1005

September 29, 2022

Time Code Weather Temp. Visibility Ceiling Wind METAR/SPECI
23:30
V
14 °C 10 km+ - 290° 290° 8 kt METAR LFMU 292130Z AUTO 29008KT 9999 //////TCU 14/12 Q1005
23:00
V
15 °C 10 km+ - 290° 290° 7 kt METAR LFMU 292100Z AUTO 29007KT 9999 -RA ///TCU 15/12 Q1005
22:30
V
15 °C 10 km+ - 280° 280° 5 kt METAR LFMU 292030Z AUTO 28005KT 9999 ///TCU 15/12 Q1005 TEMPO SHRA FEW040CB BKN050
22:00
V
15 °C 10 km+ - 340° 340° 5 kt METAR LFMU 292000Z AUTO 34005KT 9999 ///TCU 15/12 Q1004 TEMPO SHRA FEW040CB BKN050
21:30
V
15 °C 10 km+ - 320° 320° 3 kt METAR LFMU 291930Z AUTO 32003KT 9999 //////TCU 15/13 Q1004 TEMPO SHRA FEW040CB BKN050
21:00
V
15 °C 10 km+ - 310° 310° 4 kt METAR LFMU 291900Z AUTO 31004KT 9999 ///TCU 15/12 Q1004 TEMPO SHRA FEW040CB BKN050
20:30
V
16 °C 10 km+ - 320° 320° 7 kt METAR LFMU 291830Z AUTO 32007KT 9999 -RA //////TCU 16/12 Q1004 TEMPO SHRA FEW040CB BKN050
20:00
V
16 °C 10 km+ - 310° 310° 4 kt METAR LFMU 291800Z AUTO 31004KT 9999 //////TCU 16/12 Q1003 TEMPO SHRA FEW040CB BKN050
19:30
V
16 °C 10 km+ - 290° 290° 4 kt METAR LFMU 291730Z AUTO 29004KT 270V340 9999 ///TCU 16/13 Q1003 TEMPO SHRA FEW040CB BKN050
19:00
V
17 °C 10 km+ - 270° 270° 8 kt METAR LFMU 291700Z AUTO 27008KT 9999 -RA ///TCU 17/12 Q1003 TEMPO SHRA FEW040CB BKN050
18:30
V
18 °C 10 km+ - 290° 290° 12 kt METAR LFMU 291630Z AUTO 29012KT 9999 -RA ///TCU 18/11 Q1002 TEMPO SHRA FEW040CB BKN050
18:00
V
19 °C 10 km+ - 290° 290° 11 kt METAR LFMU 291600Z AUTO 29011KT 9999 //////TCU 19/10 Q1002 TEMPO SHRA FEW040CB BKN050
17:30
V
20 °C 10 km+ - 260° 260° 10 kt METAR LFMU 291530Z AUTO 26010KT CAVOK 20/10 Q1002 TEMPO SHRA FEW040CB BKN050
17:00
V
20 °C 10 km+ - 290° 290° 13 kt METAR LFMU 291500Z AUTO 29013KT CAVOK 20/09 Q1002 TEMPO SHRA FEW040CB BKN050
16:30
V
21 °C 10 km+ - 280° 280° 10 kt METAR LFMU 291430Z AUTO 28010KT CAVOK 21/09 Q1002 TEMPO SHRA FEW040CB BKN050
16:00
V
21 °C 10 km+ - 280° 280° 11 kt METAR LFMU 291400Z AUTO 28011KT 240V310 CAVOK 21/10 Q1001 TEMPO SHRA FEW040CB BKN050 BECMG 26015G25KT
15:30
V
21 °C 10 km+ 4,700 ft 320° 320° 9 kt METAR LFMU 291330Z AUTO 32009KT 290V360 9999 BKN047 BKN054 21/11 Q1001 TEMPO SHRA FEW040CB BKN050 BECMG 26015G25KT
15:00
V
21 °C 10 km+ 4,800 ft 280° 280° 10 kt METAR LFMU 291300Z AUTO 28010KT 230V310 9999 BKN048 21/12 Q1002 TEMPO SHRA FEW040CB BKN050 BECMG 26015G25KT
14:30
V
20 °C 10 km+ - 270° 270° 10 kt METAR LFMU 291230Z AUTO 27010KT 240V300 CAVOK 20/12 Q1002 TEMPO SHRA FEW040CB BKN050 BECMG 26015G25KT
14:00
V
20 °C 10 km+ 4,800 ft 300° 300° 9 - 22 kt METAR LFMU 291200Z AUTO 30009G22KT 230V330 9999 FEW037 BKN048 BKN056 20/10 Q1002 TEMPO SHRA FEW040CB BKN050
13:30
V
20 °C 10 km+ 4,300 ft 260° 260° 11 kt METAR LFMU 291130Z AUTO 26011KT 9999 BKN043 BKN050 20/11 Q1002 TEMPO SHRA FEW040CB BKN050 BECMG 26015G25KT
13:00
V
19 °C 10 km+ 3,700 ft 270° 270° 7 kt METAR LFMU 291100Z AUTO 27007KT 230V300 9999 BKN037 BKN044 BKN140 19/11 Q1003 TEMPO SHRA FEW040CB BKN050 BECMG 26015G25KT
12:30
V
19 °C 10 km+ - 270° 270° 7 kt METAR LFMU 291030Z AUTO 27007KT 230V330 CAVOK 19/11 Q1003 TEMPO SHRA FEW040CB BKN050 BECMG 26015G25KT
12:00
V
19 °C 10 km+ - 280° 280° 7 kt METAR LFMU 291000Z AUTO 28007KT 260V320 CAVOK 19/11 Q1003 BECMG 26015G25KT
11:30
V
19 °C 10 km+ - 300° 300° 8 kt METAR LFMU 290930Z AUTO 30008KT 270V340 CAVOK 19/10 Q1003 BECMG 26015G25KT
11:00
V
19 °C 10 km+ - 300° 300° 11 kt METAR LFMU 290900Z AUTO 30011KT 270V330 CAVOK 19/10 Q1003 BECMG 26015G25KT
10:30
V
18 °C 10 km+ - 280° 280° 13 kt METAR LFMU 290830Z AUTO 28013KT CAVOK 18/11 Q1003 BECMG 26015G25KT
10:00
V
17 °C 10 km+ - 280° 280° 10 kt METAR LFMU 290800Z AUTO 28010KT CAVOK 17/11 Q1003 NOSIG
09:30
V
15 °C 10 km+ - 260° 260° 5 kt METAR LFMU 290730Z AUTO 26005KT 220V290 CAVOK 15/11 Q1003 NOSIG
09:00
V
15 °C 10 km+ - 270° 270° 6 kt METAR LFMU 290700Z AUTO 27006KT CAVOK 15/11 Q1003 NOSIG
08:30
V
14 °C 10 km+ - Var Var 3 kt METAR LFMU 290630Z AUTO VRB03KT CAVOK 14/11 Q1003 BECMG 26014KT
08:00
V
15 °C 10 km+ - 270° 270° 7 kt METAR LFMU 290600Z AUTO 27007KT CAVOK 15/11 Q1003 NOSIG
07:30
V
15 °C 10 km+ - 310° 310° 9 kt METAR LFMU 290530Z AUTO 31009KT CAVOK 15/11 Q1003 NOSIG
07:00
V
15 °C 10 km+ - 300° 300° 11 kt METAR LFMU 290500Z AUTO 30011KT CAVOK 15/10 Q1003 NOSIG
06:30
V
15 °C 10 km+ - 290° 290° 9 kt METAR LFMU 290430Z AUTO 29009KT CAVOK 15/10 Q1003 NOSIG
06:00
V
16 °C 10 km+ - 280° 280° 11 kt METAR LFMU 290400Z AUTO 28011KT CAVOK 16/11 Q1003 NOSIG
05:30
V
15 °C 10 km+ - 280° 280° 10 kt METAR LFMU 290330Z AUTO 28010KT CAVOK 15/11 Q1003 NOSIG
05:00
V
16 °C 10 km+ - 280° 280° 13 kt METAR LFMU 290300Z AUTO 28013KT CAVOK 16/12 Q1004 NOSIG
04:30
V
16 °C 10 km+ - 270° 270° 12 kt METAR LFMU 290230Z AUTO 27012KT CAVOK 16/12 Q1004
04:00
V
16 °C 10 km+ - 270° 270° 12 kt METAR LFMU 290200Z AUTO 27012KT CAVOK 16/12 Q1004
03:30
V
16 °C 10 km+ - 270° 270° 12 kt METAR LFMU 290130Z AUTO 27012KT CAVOK 16/12 Q1004
03:00
V
16 °C 10 km+ - 270° 270° 13 kt METAR LFMU 290100Z AUTO 27013KT 230V290 CAVOK 16/12 Q1004
02:30
V
16 °C 10 km+ - 260° 260° 12 kt METAR LFMU 290030Z AUTO 26012KT CAVOK 16/13 Q1005
02:00
V
16 °C 10 km+ - 260° 260° 12 kt METAR LFMU 290000Z AUTO 26012KT CAVOK 16/13 Q1005
01:30
V
16 °C 10 km+ - 240° 240° 6 kt METAR LFMU 282330Z AUTO 24006KT 200V280 CAVOK 16/12 Q1005
01:00
V
16 °C 10 km+ 23,000 ft 220° 220° 6 kt METAR LFMU 282300Z AUTO 22006KT 9999 SCT045 SCT052 OVC230 16/13 Q1005
00:30
V
16 °C 10 km+ - 280° 280° 10 kt METAR LFMU 282230Z AUTO 28010KT 240V310 CAVOK 16/12 Q1005
00:00
V
16 °C 10 km+ - 270° 270° 10 kt METAR LFMU 282200Z AUTO 27010KT CAVOK 16/13 Q1005

September 28, 2022

Time Code Weather Temp. Visibility Ceiling Wind METAR/SPECI
23:30
V
16 °C 10 km+ - 260° 260° 10 kt METAR LFMU 282130Z AUTO 26010KT CAVOK 16/13 Q1005
23:00
V
17 °C 10 km+ 20,000 ft 280° 280° 13 kt METAR LFMU 282100Z AUTO 28013KT 9999 FEW043 BKN200 17/13 Q1005
22:30
V
17 °C 10 km+ - 270° 270° 13 kt METAR LFMU 282030Z AUTO 27013KT CAVOK 17/13 Q1005 BECMG 27015G25KT
22:00
V
17 °C 10 km+ - 260° 260° 12 kt METAR LFMU 282000Z AUTO 26012KT CAVOK 17/13 Q1005 BECMG 27015G25KT
21:30
V
17 °C 10 km+ - 260° 260° 12 kt METAR LFMU 281930Z AUTO 26012KT CAVOK 17/13 Q1005 BECMG 27015G25KT
21:00
V
17 °C 10 km+ - 260° 260° 12 kt METAR LFMU 281900Z AUTO 26012KT CAVOK 17/13 Q1005 BECMG 27015G25KT
20:30
V
18 °C 10 km+ - 260° 260° 11 kt METAR LFMU 281830Z AUTO 26011KT CAVOK 18/13 Q1005 BECMG 27015G25KT
20:00
V
18 °C 10 km+ - 260° 260° 12 kt METAR LFMU 281800Z AUTO 26012KT CAVOK 18/13 Q1005 BECMG 27015G25KT
19:30
V
19 °C 10 km+ - 280° 280° 16 kt METAR LFMU 281730Z AUTO 28016KT CAVOK 19/12 Q1005 BECMG 27015G25KT
19:00
V
20 °C 10 km+ 8,600 ft 280° 280° 17 kt METAR LFMU 281700Z AUTO 28017KT 9999 FEW041 SCT066 BKN086 20/12 Q1005 BECMG 27015G25KT
18:30
V
21 °C 10 km+ 5,000 ft 290° 290° 16 kt METAR LFMU 281630Z AUTO 29016KT 9999 SCT043 BKN050 BKN060 21/12 Q1005 BECMG 27015G25KT
18:00
V
21 °C 10 km+ 8,400 ft 290° 290° 20 kt METAR LFMU 281600Z AUTO 29020KT 9999 FEW047 BKN084 21/12 Q1004 BECMG 27015G25KT
17:30
V
21 °C 10 km+ 10,000 ft 280° 280° 21 - 33 kt METAR LFMU 281530Z AUTO 28021G33KT 250V310 9999 FEW042 BKN100 21/12 Q1004 NOSIG
17:00
V
20 °C 10 km+ 6,000 ft 260° 260° 12 kt METAR LFMU 281500Z AUTO 26012KT 220V290 9999 FEW037 SCT049 BKN060 20/15 Q1005 BECMG 27015G25KT
Older data

We and third parties follow your internet behavior on our website with cookies. If you continue, we assume you agree with our cookie policy. Learn more